Regional Weather Roundup
Issued by NWS

Home | Current Version | Previous Version | Graphics & Text | Print | Product List | Glossary Off
Versions: 1 2 3 4 5 6 7 8 9 10 11 12 13 14 15 16 17 18 19 20 21 22 23 24 25 26 27 28 29 30 31 32 33 34 35 36 37 38 39 40 41 42 43 44 45 46 47 48 49

411
ASUS45 KBOU 071607
RWRCO

WEATHER ROUNDUP FOR COLORADO
NATIONAL WEATHER SERVICE DENVER/BOULDER CO
900 AM MST SUN FEB 07 2016

NOTE: "FAIR" INDICATES FEW OR NO CLOUDS BELOW 12000 FEET WITH NO
SIGNIFICANT WEATHER AND/OR OBSTRUCTIONS TO VISIBILITY.

COZ001>005-013-030-031-071700-
...NORTHWEST COLORADO...

CITY           SKY/WX    TMP DP  RH WIND       PRES   REMARKS
CRAIG          CLOUDY     2   0  91 CALM      30.48R
HAYDEN         CLOUDY    16   9  73 E8        30.45R WCI   5
MEEKER         CLOUDY    13   7  77 CALM      30.47R
MOUNT WERNER   NOT AVBL
STEAMBOAT SPGS CLOUDY    16  11  78 CALM      30.45R
WALDEN         SUNNY     25  14  63 W13       30.30R WCI  13
$$

COZ006>008-011-071700-
...WEST CENTRAL VALLEYS...

CITY           SKY/WX    TMP DP  RH WIND       PRES   REMARKS
GRAND JUNCTION CLOUDY    12  11  95 E5        30.55R FOG     WCI   4
MONTROSE       CLOUDY    16  10  77 S5        30.54R WCI   9
EAGLE          MOSUNNY    5   1  85 CALM      30.50R
RIFLE          CLOUDY    12   7  80 E5        30.54R WCI   4
DELTA          CLOUDY    22  16  79 CALM      30.56R
NUCLA          CLOUDY    19  12  73 CALM      30.53R
$$

COZ017>023-064>068-071700-
...SOUTHWEST COLORADO...

CITY           SKY/WX    TMP DP  RH WIND       PRES   REMARKS
DURANGO        CLOUDY    10   8  92 NE5       30.40R WCI   2
CORTEZ         CLOUDY    22  12  65 NE5       30.43R WCI  16
PAGOSA SPRINGS CLOUDY   N/A N/A N/A CALM      30.39R
TELLURIDE      CLOUDY    25  15  64 CALM      30.46R
WOLF CREEK PAS CLOUDY    25   5  42 CALM      30.41R
$$

COZ009-010-012-014-032>034-037-058>063-071700-
...CENTRAL COLORADO...

CITY           SKY/WX    TMP DP  RH WIND       PRES   REMARKS
ASPEN          CLOUDY    18  11  74 CALM      30.43R
BUENA VISTA    CLOUDY    35   9  33 W20G30    30.31R WCI  24
COPPER MTN     CLOUDY    19   5  53 W29G47    30.32F HAZE    WCI   1
BERTHOUD PASS  CLOUDY     9  -2  61 NW44G52   30.25R HAZE    WCI -18
COTTONWOOD PAS CLOUDY    32   3  29 SW31G53   30.28R WCI  17
GUNNISON       CLOUDY    -9 -24  49 CALM      30.55R
KREMMLING      CLOUDY    16   7  67 E3        30.41R
LEADVILLE      CLOUDY    22   9  57 N10       30.37R WCI  11
MONARCH PASS   CLOUDY    12   9  85 MISG      30.46R
SALIDA         NOT AVBL
SUNLIGHT       CLOUDY    21  14  73 W7          N/A  WCI  13
WILKERSON PASS CLOUDY    21   3  45 NW10G31   30.30F WCI  10
$$

COZ069>075-071700-
...SAN LUIS VALLEY/SANGRE DE CRISTO MOUNTAINS...

CITY           SKY/WX    TMP DP  RH WIND       PRES   REMARKS
ALAMOSA        CLOUDY    10   6  84 SW3       30.37R
LA VETA PASS   CLOUDY    27   7  43 MISG      30.28F
SAGUACHE       CLOUDY    34  14  44 S6        30.36R WCI  29
$$

COZ035-036-038>040-071700-
...NORTHERN COLORADO FRONT RANGE...

CITY           SKY/WX    TMP DP  RH WIND       PRES   REMARKS
DENVER INTL AP MOSUNNY   30  18  60 E16       30.27R WCI  19
DMNS CITY PARK   N/A     44  14  30 N14G25    30.26R
AURORA         MOSUNNY   38  19  44 NE14G22   30.26R
FRONT RANGE AP MOSUNNY   27  18  69 E7G18     30.29  WCI  19
ERIE MUNI ARPT SUNNY     32  17  54 E18G26    30.27R WCI  20
BOULDER MUN AP SUNNY     45  16  31 NW17G29   30.23R
CENTENNIAL     MOSUNNY   42  15  33 NW17      30.23R
BROOMFIELD     MOSUNNY   43  12  28 CALM      30.24R
FORT COLLINS   SUNNY     27  16  63 SE16      30.26R WCI  14
LONGMONT       SUNNY     35  20  54 E21G29    30.29R WCI  24
$$

COZ041-046-047-076>085-087-088-071700-
...PIKES PEAK/PALMER DIVIDE AND SOUTHERN FOOTHILLS...

CITY           SKY/WX    TMP DP  RH WIND       PRES   REMARKS
COLO. SPRINGS  CLOUDY    30  17  58 S7        30.28R WCI  23
A. F. ACADEMY  CLOUDY    29   8  41 W2        30.26R
SCHRIEVER AFB  FAIR      27  17  65 W7        30.28R WCI  20
ELLICOTT       NOT AVBL
FALCON         CLOUDY    30  12  47 SW16      30.27R WCI  19
FORT CARSON    CLOUDY    34  20  56 S10       30.26R WCI  26
LIMON          CLOUDY    24  15  68 N9        30.29R WCI  14
MONUMENT HILL  CLOUDY    30  10  43 W7        30.26R WCI  23
TRINIDAD       CLOUDY    38  18  44 NE6       30.27R
$$

COZ042>045-048>051-090-091-071700-
...NORTHEAST COLORADO...

CITY           SKY/WX    TMP DP  RH WIND       PRES   REMARKS
GREELEY ARPT   SUNNY     28  19  69 NE8       30.31R WCI  20
AKRON          MOSUNNY   25  18  74 N17       30.29R WCI  12
BURLINGTON     SUNNY     28  17  63 NW17      30.28R WCI  16
WRAY           CLOUDY    31  22  67 NW15      30.29R WCI  21
STERLING       CLOUDY    32  25  74 N21G29    30.30R WCI  20
HOLYOKE        SUNNY     36  27  69 NW18G25   30.29R
FORT MORGAN    SUNNY     28  18  65 N9        30.32R WCI  20
$$

COZ086-089-092>099-071700-
...SOUTHEAST COLORADO...

CITY           SKY/WX    TMP DP  RH WIND       PRES   REMARKS
PUEBLO         CLOUDY    39  21  48 E3        30.29R
LA JUNTA       CLOUDY    35  25  66 W8        30.29R WCI  29
LAMAR          SUNNY     37  27  67 W6        30.28R
SPRINGFIELD      N/A     43  23  45 N8        30.25R
$$




USA.gov is the U.S. government's official web portal to all federal, state and local government web resources and services.